STARLINK-32643 (62233 NORAD) Tracking and Keplerian Element Data

This shows tracking and keplerian element data for the satellite.

Feedback or suggestion? Click here.




ElementValue
Catalog62233
NameSTARLINK-32643
Epoch Orbit1064
Epoch Day35.05588384
Epoch Year2025
RAAN275.6593
Inclination53.1595
Eccentricity0.0001564
Argument of Perigee75.7775
Mean Anonmoly284.3403
Mean Motion15.39544822
Decay Rate1.299E-05
L11 62233U 24231R 25035.05588384 .00001299 00000+0 42563-4 0 9998
L22 62233 53.1595 275.6593 0001564 75.7775 284.3403 15.39544822 10645



Live tracking and technical data element details for STARLINK-32643 (NORAD 62233). STARLINK-32643 can be tracked NOW for your location showing map with azimuth and elevation plus other details from your city location.







IsCatalogInMostPopularTable: catalog: 62233, numindb: 12
Update: records affected: 1



GetName: 62233 STARLINK-32643

Hit Count: updated at: Mon, 19 May 2025 03:32:23 GMT